[[{"header":{"parameterUnit":"m.s-1","parameterCategory":1,"la1":30.2991,"la2":30.254,"lo1":-89.0895,"lo2":-89.0444,"dy":0.0017,"dx":0.0017,"nx":28,"ny":28,"refTime":"2024-08-16T09:00:00:Z","depth":0,"parameterNumber":2,"parameterNumberName":"U-component_of_WINDS"},"data":[0,0,0,0,0,0,0,0,0,0,0,0,0,0,0,0,0,0,0,0,0,0,0,0,0,0,0,0,0,0,0,0,0,0,0,0,0,0,0,0,0,0,0,0,0,0,0,0,0,0,0,0,0,0,0,0,0,0,0.8187,0.8187,0,0.8159,0.8158,0.8158,0.8142,0.8142,0.8142,0.8142,0.8112,0.8111,0.811,0,0,0,0,0,0,0,0,0,0,0,0,0,0.8226,0.8226,0.8187,0.8187,0.8187,0.8159,0.8158,0.8158,0.8142,0.8142,0.8142,0.8142,0.8112,0.8111,0.811,0,0,0,0,0,0,0,0,0,0,0,0,0,0.8205,0.8226,0.8188,0.8175,0.8174,0.8159,0.8158,0.8158,0.8142,0.8142,0.8142,0.8142,0.8112,0.8111,0.811,0.8105,0,0,0.8107,0.8106,0,0,0,0,0,0,0,0,0.8206,0.8203,0.8178,0.8176,0.8175,0.8154,0.8161,0.814,0.8142,0.8154,0.8142,0.8142,0.8126,0.8124,0.8118,0.8103,0.8102,0.8107,0.8106,0.8106,0.8105,0,0,0,0,0,0,0,0.8207,0.8204,0.8176,0.8177,0.8175,0.8171,0.8168,0.8157,0.8141,0.8153,0.8152,0.8149,0.8125,0.812,0.8118,0.8102,0.8107,0.8106,0.8105,0.8105,0.8078,0.8077,0,0,0,0,0,0,0.8211,0.8206,0.8177,0.8175,0.819,0.817,0.8167,0.8161,0.8141,0.8138,0.8149,0.8148,0.8122,0.8119,0.8116,0.8107,0.8106,0.8105,0.8104,0.8078,0.8077,0.8077,0,0,0,0,0,0,0.8212,0.8209,0.8178,0.819,0.8186,0.8169,0.8163,0.816,0.8155,0.8138,0.8134,0.8146,0.8121,0.8118,0.8107,0.8106,0.8104,0.8103,0.8078,0.8078,0.8077,0.8089,0,0,0,0,0,0,0.8213,0.8209,0.8208,0.819,0.8185,0.817,0.8163,0.816,0.8153,0.8151,0.8134,0.8131,0.8121,0.8109,0.8106,0.8104,0.8102,0.8078,0.8078,0.8077,0.8088,0.8089,0.809,0,0,0,0,0,0.8215,0.8212,0.8208,0.8204,0.8183,0.817,0.8167,0.8155,0.8153,0.815,0.8139,0.8132,0.8106,0.8108,0.8105,0.8102,0.8078,0.8078,0.8077,0.8088,0.8089,0.809,0,0,0,0,0,0,0.823,0.821,0.8204,0.8197,0.8185,0.8167,0.8164,0.8157,0.8146,0.8145,0.8131,0.8127,0.8117,0.8109,0.8111,0.8094,0.8091,0.809,0.81,0.8101,0.8101,0.8103,0.8101,0,0,0,0,0,0.8233,0.8225,0.8207,0.8202,0.8196,0.8181,0.8175,0.8167,0.8154,0.8149,0.8137,0.8125,0.8114,0.8107,0.8096,0.8087,0.8082,0.8083,0.8084,0.8085,0.8084,0.8076,0.8076,0.8077,0.8077,0.8077,0,0,0.8238,0.8226,0.8222,0.8204,0.8195,0.8185,0.8177,0.8168,0.8161,0.8148,0.8136,0.8127,0.8112,0.8101,0.8096,0.8094,0.8082,0.8085,0.8085,0.8084,0.8076,0.8076,0.8076,0.8077,0.8077,0.8077,0,0,0.8243,0.8233,0.8227,0.8217,0.8201,0.8191,0.8189,0.8172,0.8165,0.8154,0.8143,0.8133,0.8115,0.8104,0.8097,0.8094,0.8086,0.8091,0.8094,0.8086,0.8086,0.8086,0.8084,0.8083,0.809,0.809,0.809,0,0.8251,0.8237,0.8224,0.8215,0.8207,0.8194,0.8187,0.8177,0.8159,0.8154,0.8152,0.8127,0.8116,0.8101,0.8101,0.8095,0.8092,0.8093,0.8087,0.8087,0.8087,0.8084,0.8083,0.8091,0.8091,0.8091,0.8091,0,0.8247,0.8237,0.8234,0.8216,0.8207,0.8199,0.8184,0.8177,0.8169,0.8158,0.8145,0.8131,0.8116,0.8112,0.8105,0.8096,0.8095,0.809,0.8087,0.8087,0.8084,0.8084,0.8092,0.8092,0.8091,0.8091,0,0,0.8262,0.8235,0.8234,0.8225,0.8206,0.8198,0.8188,0.8173,0.8166,0.8154,0.8144,0.8128,0.8123,0.8114,0.8105,0.8098,0.8095,0.8094,0.8093,0.8093,0.8082,0.8085,0.8084,0.809,0.8089,0.8089,0.8082,0,0.8262,0.8245,0.8232,0.8219,0.8208,0.8195,0.8186,0.8173,0.8162,0.8151,0.8139,0.8127,0.8123,0.8117,0.811,0.8097,0.8092,0.8097,0.8079,0.8079,0.8083,0.8083,0.8086,0.808,0.8081,0.8081,0.8081,0,0.8261,0.8248,0.8234,0.8214,0.8209,0.8202,0.8186,0.8176,0.816,0.8152,0.8141,0.8131,0.8119,0.8116,0.8098,0.8101,0.8093,0.8085,0.8085,0.8082,0.808,0.8079,0.8079,0.8077,0.808,0.808,0.808,0,0.8271,0.825,0.8238,0.8231,0.8208,0.8203,0.8193,0.8177,0.8168,0.8154,0.8147,0.8132,0.8123,0.8111,0.8096,0.8096,0.8079,0.8075,0.8071,0.8071,0.8068,0.8068,0.8065,0.8064,0.8064,0.8064,0.8064,0,0.8273,0.8264,0.8242,0.8235,0.8224,0.8209,0.8198,0.8187,0.8173,0.8162,0.8149,0.8139,0.8121,0.8109,0.8097,0.8082,0.8079,0.8072,0.8068,0.8072,0.8073,0.8066,0.8066,0.8064,0.8064,0.8064,0.8064,0,0.8283,0.8268,0.8254,0.8232,0.8227,0.822,0.8201,0.8192,0.8181,0.8167,0.8163,0.8144,0.8128,0.8112,0.8091,0.8083,0.8068,0.8065,0.8074,0.8072,0.8067,0.8067,0.8059,0.8057,0.8059,0.8059,0.8059,0,0.8284,0.8277,0.8255,0.8246,0.8237,0.8224,0.8214,0.8198,0.8188,0.8168,0.8162,0.8145,0.8131,0.8106,0.8089,0.8072,0.8068,0.8066,0.8065,0.8068,0.8066,0.8066,0.8064,0.8066,0.8066,0.8066,0.8066,0,0.8288,0.8281,0.8267,0.8251,0.8239,0.8226,0.8212,0.8205,0.8186,0.8176,0.8159,0.8148,0.8125,0.8108,0.8089,0.8078,0.8068,0.8067,0.8064,0.8068,0.8073,0.8068,0.8074,0.8067,0.8067,0.8067,0.8067,0.8067,0.8293,0.8285,0.8267,0.8252,0.824,0.8226,0.8216,0.8203,0.8189,0.8169,0.816,0.8143,0.8125,0.8098,0.8087,0.8072,0.807,0.8067,0.8066,0.8065,0.8065,0.8075,0.8069,0.8069,0.8069,0.8069,0.8068,0,0.8295,0.8282,0.8269,0.8249,0.8236,0.8229,0.8212,0.8202,0.8187,0.8171,0.8156,0.8136,0.8119,0.81,0.8081,0.8073,0.8068,0.8069,0.8069,0.8066,0.8069,0.8072,0.8073,0.8073,0.8073,0.8073,0.8073,0.8073,0.8294,0.828,0.827,0.8248,0.8236,0.8219,0.821,0.8196,0.8183,0.8161,0.8146,0.8135,0.8117,0.8096,0.8079,0.8074,0.8067,0.8069,0.8062,0.8066,0.8066,0.8066,0.8068,0.8068,0.8068,0.806,0.8059,0.8059]},{"header":{"parameterUnit":"m.s-1","parameterCategory":1,"la1":30.2991,"la2":30.254,"lo1":-89.0895,"lo2":-89.0444,"dy":0.0017,"dx":0.0017,"nx":28,"ny":28,"refTime":"2024-08-16T09:00:00:Z","depth":0,"parameterNumber":3,"parameterNumberName":"V-component_of_WINDS"},"data":[0,0,0,0,0,0,0,0,0,0,0,0,0,0,0,0,0,0,0,0,0,0,0,0,0,0,0,0,0,0,0,0,0,0,0,0,0,0,0,0,0,0,0,0,0,0,0,0,0,0,0,0,0,0,0,0,0,0,2.2747,2.2747,0,2.2778,2.2779,2.2779,2.2768,2.2767,2.2766,2.2766,2.2796,2.2797,2.2799,0,0,0,0,0,0,0,0,0,0,0,0,0,2.2674,2.2676,2.2747,2.2747,2.2748,2.2778,2.2779,2.2779,2.2768,2.2767,2.2766,2.2765,2.2795,2.2797,2.2799,0,0,0,0,0,0,0,0,0,0,0,0,0,2.2706,2.2676,2.2747,2.2746,2.2746,2.2778,2.2779,2.2779,2.2768,2.2767,2.2766,2.2765,2.2795,2.2797,2.2799,2.2833,0,0,2.2806,2.2807,0,0,0,0,0,0,0,0,2.2704,2.2709,2.2746,2.2746,2.2746,2.2768,2.2764,2.2797,2.2768,2.276,2.2766,2.2764,2.2787,2.279,2.2798,2.2835,2.2836,2.2806,2.2807,2.2808,2.2809,0,0,0,0,0,0,0,2.2702,2.2707,2.2759,2.2746,2.2747,2.2743,2.2746,2.277,2.2779,2.276,2.276,2.2764,2.2787,2.2796,2.2799,2.2837,2.2806,2.2808,2.2809,2.281,2.29,2.2901,0,0,0,0,0,0,2.27,2.2705,2.2758,2.276,2.2722,2.2745,2.2749,2.2762,2.2779,2.278,2.2764,2.2763,2.2793,2.2796,2.28,2.2839,2.2808,2.281,2.2811,2.2899,2.29,2.2902,0,0,0,0,0,0,2.2698,2.2705,2.2757,2.2733,2.2739,2.2747,2.2763,2.2763,2.2772,2.2782,2.2783,2.2772,2.2792,2.2797,2.2825,2.284,2.2811,2.2813,2.2898,2.2899,2.2901,2.2919,0,0,0,0,0,0,2.2696,2.2704,2.2718,2.2733,2.274,2.2782,2.2764,2.2765,2.2776,2.2774,2.2789,2.2791,2.2792,2.2821,2.2827,2.2843,2.2815,2.2896,2.2899,2.29,2.2917,2.2921,2.2925,0,0,0,0,0,2.2694,2.2723,2.2719,2.2726,2.2758,2.2783,2.2787,2.2789,2.2777,2.2791,2.2797,2.279,2.2838,2.2824,2.283,2.2847,2.2895,2.2898,2.29,2.2916,2.2921,2.2925,0,0,0,0,0,0,2.2709,2.2724,2.2721,2.2755,2.2768,2.2782,2.2799,2.2794,2.281,2.2808,2.2808,2.2812,2.284,2.2846,2.2831,2.288,2.2865,2.2868,2.2874,2.2879,2.2883,2.288,2.2817,0,0,0,0,0,2.2717,2.2737,2.2749,2.2778,2.2784,2.279,2.2802,2.2801,2.2814,2.2819,2.2827,2.284,2.2857,2.2869,2.2886,2.2919,2.292,2.2933,2.2936,2.294,2.2942,2.2958,2.2963,2.291,2.291,2.291,0,0,2.2732,2.2743,2.2756,2.2781,2.2791,2.281,2.2795,2.2817,2.2831,2.2823,2.2849,2.2855,2.2869,2.2899,2.2912,2.2905,2.2958,2.2943,2.2945,2.2946,2.2961,2.2966,2.297,2.2911,2.2911,2.2911,0,0,2.277,2.2781,2.2806,2.2816,2.2831,2.2834,2.284,2.2854,2.2857,2.2884,2.2878,2.2894,2.2925,2.2934,2.2942,2.2982,2.2976,2.2987,2.3006,2.3022,2.3026,2.3029,2.3042,2.3046,2.299,2.299,2.299,0,2.2787,2.2817,2.2819,2.284,2.2851,2.2844,2.2868,2.2877,2.2897,2.2904,2.2895,2.2932,2.2941,2.2972,2.2982,2.299,2.2995,2.2985,2.3025,2.3029,2.3032,2.3044,2.3049,2.2992,2.2991,2.2991,2.2991,0,2.2836,2.2857,2.2875,2.2894,2.2906,2.2929,2.2932,2.2944,2.2943,2.2947,2.2972,2.2983,2.3001,2.3008,2.3007,2.3038,2.3033,2.3025,2.301,2.3039,2.3049,2.3054,2.2993,2.2993,2.2992,2.2992,0,0,2.2885,2.2904,2.291,2.2917,2.2933,2.2948,2.2969,2.2987,2.2996,2.301,2.3027,2.3052,2.3044,2.3054,2.3054,2.3067,2.3095,2.3057,2.3058,2.3062,2.3128,2.3133,2.3138,2.3092,2.3092,2.3093,2.3126,0,2.2923,2.2961,2.2962,2.2996,2.3014,2.3007,2.3026,2.3036,2.304,2.3055,2.3059,2.3076,2.3066,2.3071,2.3085,2.3089,2.3108,2.3087,2.3105,2.3106,2.3101,2.3144,2.315,2.318,2.3131,2.3131,2.3132,0,2.2972,2.2987,2.3023,2.3033,2.3041,2.3057,2.3072,2.3087,2.3098,2.31,2.311,2.3107,2.3127,2.3112,2.3139,2.3124,2.3132,2.3135,2.3137,2.3137,2.312,2.3144,2.319,2.3194,2.3139,2.3138,2.3138,0,2.3002,2.303,2.3055,2.3062,2.3076,2.3087,2.3093,2.3103,2.3113,2.3126,2.3132,2.3147,2.3155,2.3166,2.3167,2.3156,2.3193,2.3178,2.3193,2.3193,2.3201,2.32,2.3247,2.3208,2.3208,2.3208,2.3208,0,2.3043,2.3065,2.3068,2.3083,2.3107,2.3107,2.313,2.3135,2.3144,2.3158,2.3154,2.3168,2.3169,2.3182,2.3183,2.3204,2.3208,2.3209,2.3208,2.3208,2.3208,2.3212,2.321,2.3209,2.3209,2.3209,2.3209,0,2.308,2.3083,2.3109,2.3119,2.3122,2.3139,2.3148,2.3161,2.3164,2.3183,2.3187,2.3192,2.3208,2.3209,2.3228,2.3228,2.3253,2.3251,2.3249,2.3248,2.3263,2.3261,2.3313,2.332,2.3278,2.3279,2.3279,0,2.3105,2.3121,2.3133,2.3143,2.3149,2.3165,2.3175,2.3175,2.3185,2.3198,2.321,2.3225,2.3237,2.3263,2.3267,2.3281,2.3278,2.3296,2.328,2.3279,2.3276,2.3275,2.3275,2.3298,2.3299,2.3299,2.3299,0,2.3149,2.3149,2.3164,2.3178,2.3189,2.3201,2.3211,2.3219,2.3221,2.3232,2.3248,2.3257,2.3276,2.329,2.3304,2.3309,2.3304,2.3304,2.3308,2.3308,2.3305,2.3305,2.3256,2.3303,2.3302,2.3302,2.3302,2.3302,2.318,2.3193,2.3203,2.3218,2.3226,2.3235,2.3248,2.3252,2.3266,2.3281,2.328,2.3297,2.3306,2.3323,2.3329,2.3342,2.3336,2.3342,2.3344,2.3345,2.3345,2.3304,2.3345,2.3345,2.3345,2.3344,2.3344,0,2.3222,2.3227,2.3241,2.3256,2.3267,2.3262,2.3273,2.3283,2.3298,2.3307,2.3319,2.3336,2.335,2.3355,2.3368,2.3377,2.3375,2.338,2.3379,2.338,2.3351,2.3345,2.3382,2.3382,2.3382,2.3382,2.3382,2.3382,2.3245,2.3266,2.3267,2.3292,2.3298,2.3314,2.3321,2.3329,2.3336,2.3355,2.3367,2.337,2.3377,2.339,2.3402,2.3403,2.3407,2.3414,2.3413,2.3386,2.3382,2.3378,2.3373,2.3415,2.3415,2.3441,2.3441,2.3442]}]]